Location: Unnamed
(48.6007°N, 2.4808°E)
Time: 17:31:53
(UTC+01:00)

ITUPSAT 1 - Visible Passes

Search period start: 20 March 2023 00:00
Search period end: 30 March 2023 01:00
Orbit: 699 x 709 km, 98.5° (Epoch: 19 March)

Date Brightness Start Highest point End Pass type
(mag) Time Alt. Az. Time Alt. Az. Time Alt. Az.
20 Mar ? 21:59:26 10° NNE 22:01:44 28° NNE 22:01:44 28° NNE visible
20 Mar ? 23:38:18 10° NNW 23:40:40 17° NW 23:40:40 17° NW visible
21 Mar ? 21:05:41 10° NE 21:06:52 15° NE 21:06:52 15° NE visible
21 Mar ? 22:42:57 10° N 22:45:48 32° NNW 22:45:48 32° NNW visible
22 Mar ? 21:48:29 10° NNE 21:50:56 29° NNE 21:50:56 29° NNE visible
22 Mar ? 23:27:00 10° NNW 23:29:52 21° NW 23:29:52 21° NW visible
23 Mar ? 20:55:01 10° NE 20:56:04 14° NE 20:56:04 14° NE visible
23 Mar ? 22:31:52 10° N 22:35:00 38° N 22:35:00 38° N visible
24 Mar ? 00:13:12 10° NW 00:13:22 10° NW 00:13:32 10° NW visible
24 Mar ? 21:37:33 10° NNE 21:40:07 29° NE 21:40:07 29° NE visible
24 Mar ? 23:15:45 10° N 23:19:03 25° NW 23:19:03 25° NW visible
25 Mar ? 20:44:29 10° NE 20:45:14 12° ENE 20:45:14 12° ENE visible
25 Mar ? 22:20:49 10° N 22:24:10 45° N 22:24:10 45° N visible
26 Mar ? 00:00:36 10° NNW 00:02:32 12° NW 00:03:07 12° WNW visible
26 Mar ? 22:26:40 10° NNE 22:29:17 27° NE 22:29:17 27° NE visible
27 Mar ? 00:04:33 10° N 00:08:13 31° NW 00:08:13 31° NW visible
27 Mar ? 21:34:15 10° ENE 21:34:24 10° ENE 21:34:24 10° ENE visible
27 Mar ? 23:09:46 10° NNE 23:13:19 50° NNE 23:13:19 50° NNE visible
28 Mar ? 00:48:58 10° NNW 00:51:41 15° NW 00:52:16 15° WNW visible
28 Mar ? 22:15:49 10° NE 22:18:26 24° ENE 22:18:26 24° ENE visible
28 Mar ? 23:53:22 10° N 23:57:23 38° NW 23:57:23 38° NW visible
29 Mar ? 22:58:45 10° NNE 23:02:28 51° NE 23:02:28 51° NE visible
30 Mar ? 00:37:33 10° NNW 00:40:48 18° WNW 00:41:25 18° WNW visible
